Owatonna, MN

6:21 AM CDT on August 30, 2016 (GMT -0500)
Owatonna Degner Regional

Weather History for KOWA - March, 2013

Change the Weather History Date:

Friday, March 1, 2013

  Actual Average Record
Temperature  
Mean Temperature 19 °F -  
Max Temperature 30 °F 37 °F 58 °F (1992)
Min Temperature 8 °F 16 °F -32 °F (1962)
Degree Days  
Heating Degree Days 46    
Moisture  
Dew Point 11 °F    
Average Humidity 61    
Maximum Humidity 73    
Minimum Humidity 47    
Precipitation  
Precipitation 0.00 in - - ()
Sea Level Pressure  
Sea Level Pressure 30.25 in    
Wind  
Wind Speed 7 mph (NNE)    
Max Wind Speed 15 mph    
Max Gust Speed 16 mph    
Visibility 10 miles    
Events Snow    
Averages and records for this station are not official NWS values.
T = Trace of Precipitation, MM = Missing Value Source: NWS Daily Summary

Daily Weather History Graph

Daily Weather History Graph

Search for Another Location

Airport or City:

Trip Planner

Search our weather history database for the weather conditions in past years. The results will help you decide how hot, cold, wet, or windy it might be!

Date:

Astronomy

Mar. 01, 2013 Rise Set
Actual Time 6:49 AM CST 6:01 PM CST
Civil Twilight 6:20 AM CST 6:30 PM CST
Nautical Twilight 5:47 AM CST 7:04 PM CST
Astronomical Twilight 5:13 AM CST 7:37 PM CST
Moon 10:47 PM CST (3/1) 8:26 AM CST (3/1)
Length of Visible Light 12h 10m
Length of Day
11h 12m
Waning Gibbous, 83% of the Moon is Illuminated
Mar 1
Waning Gibbous
Mar 4
Last Quarter
Mar 11
New
Mar 19
First Quarter
Mar 27
Full

Hourly Weather History & Observations

Time (CST) Temp. Windchill Dew Point Humidity Pressure Visibility Wind Dir Wind Speed Gust Speed Precip Events Conditions
12:13 AM 26.6 °F 20.0 °F 15.8 °F 64% 30.16 in 10.0 mi NNE 5.8 mph - N/A   Overcast
12:33 AM 26.6 °F 21.2 °F 15.8 °F 64% 30.16 in 10.0 mi NNE 4.6 mph - N/A   Overcast
12:53 AM 26.6 °F 20.0 °F 15.8 °F 64% 30.17 in 10.0 mi NNE 5.8 mph - N/A   Overcast
1:14 AM 26.6 °F 20.0 °F 15.8 °F 64% 30.17 in 10.0 mi NNE 5.8 mph - N/A   Overcast
1:34 AM 26.6 °F 19.1 °F 15.8 °F 64% 30.17 in 10.0 mi NNE 6.9 mph - N/A Snow Light Snow
1:53 AM 26.6 °F 18.2 °F 15.8 °F 64% 30.17 in 10.0 mi NNE 8.1 mph - N/A   Overcast
2:13 AM 26.6 °F 20.0 °F 15.8 °F 64% 30.18 in 10.0 mi NE 5.8 mph - N/A   Overcast
2:34 AM 26.6 °F 19.1 °F 15.8 °F 64% 30.17 in 10.0 mi NNE 6.9 mph - N/A   Overcast
2:53 AM 26.6 °F 16.8 °F 14.0 °F 59% 30.17 in 10.0 mi NE 10.4 mph - N/A Snow Light Snow
3:13 AM 26.6 °F 18.2 °F 12.2 °F 55% 30.18 in 10.0 mi NE 8.1 mph - N/A   Overcast
3:33 AM 24.8 °F 16.9 °F 12.2 °F 59% 30.18 in 10.0 mi NE 6.9 mph - N/A   Overcast
3:53 AM 24.8 °F 16.9 °F 12.2 °F 59% 30.18 in 10.0 mi NNE 6.9 mph - N/A   Overcast
4:13 AM 24.8 °F 16.9 °F 12.2 °F 59% 30.19 in 10.0 mi NNE 6.9 mph - N/A   Overcast
4:34 AM 24.8 °F 14.6 °F 12.2 °F 59% 30.19 in 10.0 mi NNE 10.4 mph - N/A Snow Light Snow
4:53 AM 24.8 °F 16.9 °F 12.2 °F 59% 30.20 in 10.0 mi NNE 6.9 mph - N/A   Overcast
5:13 AM 24.8 °F 15.3 °F 12.2 °F 59% 30.20 in 10.0 mi NNE 9.2 mph - N/A   Overcast
5:33 AM 24.8 °F 16.1 °F 12.2 °F 59% 30.21 in 10.0 mi NNE 8.1 mph - N/A Snow Light Snow
6:14 AM 24.8 °F 15.3 °F 14.0 °F 64% 30.22 in 10.0 mi NNE 9.2 mph - N/A Snow Light Snow
6:33 AM 24.8 °F 16.9 °F 14.0 °F 64% 30.22 in 10.0 mi NNE 6.9 mph - N/A Snow Light Snow
6:54 AM 24.8 °F 15.3 °F 12.2 °F 59% 30.23 in 10.0 mi NNE 9.2 mph - N/A   Overcast
7:13 AM 24.8 °F 14.6 °F 12.2 °F 59% 30.23 in 10.0 mi NNE 10.4 mph - N/A   Overcast
7:33 AM 24.8 °F 15.3 °F 12.2 °F 59% 30.24 in 10.0 mi NNE 9.2 mph - N/A   Overcast
7:53 AM 24.8 °F 15.3 °F 12.2 °F 59% 30.25 in 10.0 mi NE 9.2 mph - N/A   Overcast
8:13 AM 24.8 °F 14.0 °F 12.2 °F 59% 30.26 in 10.0 mi NNE 11.5 mph - N/A   Overcast
8:33 AM 24.8 °F 14.6 °F 12.2 °F 59% 30.26 in 10.0 mi NNE 10.4 mph - N/A Snow Light Snow
8:53 AM 24.8 °F 14.6 °F 12.2 °F 59% 30.26 in 7.0 mi NNE 10.4 mph - N/A Snow Light Snow
9:13 AM 24.8 °F 14.6 °F 12.2 °F 59% 30.26 in 7.0 mi NNE 10.4 mph - N/A Snow Light Snow
9:33 AM 24.8 °F 15.3 °F 10.4 °F 54% 30.27 in 7.0 mi NNE 9.2 mph - N/A Snow Light Snow
9:53 AM 24.8 °F 14.6 °F 10.4 °F 54% 30.27 in 10.0 mi NNE 10.4 mph - N/A Snow Light Snow
10:13 AM 24.8 °F 14.6 °F 10.4 °F 54% 30.27 in 10.0 mi NE 10.4 mph - N/A   Overcast
10:33 AM 26.6 °F 16.8 °F 12.2 °F 55% 30.27 in 10.0 mi NE 10.4 mph - N/A   Overcast
11:13 AM 26.6 °F 15.7 °F 10.4 °F 51% 30.26 in 10.0 mi NNE 12.7 mph - N/A   Overcast
11:34 AM 26.6 °F 14.7 °F 12.2 °F 55% 30.27 in 10.0 mi North 15.0 mph - N/A   Overcast
11:54 AM 26.6 °F 16.2 °F 12.2 °F 55% 30.27 in 10.0 mi North 11.5 mph - N/A   Overcast
12:13 PM 28.4 °F 18.5 °F 12.2 °F 51% 30.28 in 10.0 mi NNE 11.5 mph - N/A   Overcast
12:33 PM 28.4 °F 18.5 °F 12.2 °F 51% 30.27 in 10.0 mi North 11.5 mph - N/A   Overcast
12:53 PM 28.4 °F 18.0 °F 12.2 °F 51% 30.27 in 10.0 mi North 12.7 mph - N/A   Overcast
1:14 PM 28.4 °F 18.0 °F 12.2 °F 51% 30.27 in 10.0 mi North 12.7 mph - N/A   Mostly Cloudy
1:34 PM 28.4 °F 19.1 °F 14.0 °F 55% 30.26 in 10.0 mi North 10.4 mph - N/A   Overcast
1:53 PM 28.4 °F 19.1 °F 14.0 °F 55% 30.27 in 10.0 mi North 10.4 mph - N/A   Overcast
2:14 PM 30.2 °F 21.9 °F 12.2 °F 47% 30.26 in 10.0 mi North 9.2 mph - N/A   Overcast
2:34 PM 28.4 °F 19.7 °F 14.0 °F 55% 30.26 in 10.0 mi North 9.2 mph 16.1 mph N/A   Overcast
2:54 PM 30.2 °F 20.8 °F 14.0 °F 51% 30.26 in 10.0 mi North 11.5 mph 16.1 mph N/A   Overcast
3:13 PM 30.2 °F 21.3 °F 14.0 °F 51% 30.25 in 10.0 mi North 10.4 mph - N/A   Mostly Cloudy
3:33 PM 30.2 °F 21.3 °F 14.0 °F 51% 30.26 in 10.0 mi North 10.4 mph - N/A   Mostly Cloudy
3:53 PM 30.2 °F 21.3 °F 14.0 °F 51% 30.26 in 10.0 mi North 10.4 mph - N/A   Mostly Cloudy
4:13 PM 30.2 °F 21.9 °F 15.8 °F 55% 30.26 in 10.0 mi North 9.2 mph - N/A   Scattered Clouds
4:33 PM 30.2 °F 20.8 °F 14.0 °F 51% 30.26 in 10.0 mi North 11.5 mph - N/A   Mostly Cloudy
4:53 PM 28.4 °F 18.0 °F 15.8 °F 59% 30.27 in 10.0 mi North 12.7 mph - N/A   Mostly Cloudy
5:14 PM 28.4 °F 20.4 °F 14.0 °F 55% 30.27 in 10.0 mi NNW 8.1 mph - N/A   Scattered Clouds
5:34 PM 28.4 °F 20.4 °F 14.0 °F 55% 30.27 in 10.0 mi NNW 8.1 mph - N/A   Clear
6:13 PM 24.8 °F 19.1 °F 12.2 °F 59% 30.28 in 10.0 mi NNW 4.6 mph - N/A   Clear
6:34 PM 21.2 °F 14.9 °F 10.4 °F 63% 30.28 in 10.0 mi NW 4.6 mph - N/A   Clear
6:53 PM 19.4 °F - 10.4 °F 68% 30.29 in 10.0 mi Calm Calm - N/A   Clear
7:13 PM 17.6 °F - 8.6 °F 68% 30.29 in 10.0 mi Calm Calm - N/A   Clear
7:33 PM 17.6 °F - 8.6 °F 68% 30.29 in 10.0 mi Calm Calm - N/A   Clear
7:54 PM 17.6 °F 12.3 °F 10.4 °F 73% 30.29 in 10.0 mi NW 3.5 mph - N/A   Clear
8:13 PM 17.6 °F - 8.6 °F 68% 30.29 in 10.0 mi Calm Calm - N/A   Clear
8:33 PM 17.6 °F - 8.6 °F 68% 30.29 in 10.0 mi Calm Calm - N/A   Clear
8:53 PM 15.8 °F - 8.6 °F 73% 30.29 in 10.0 mi Calm Calm - N/A   Clear
9:13 PM 15.8 °F - 8.6 °F 73% 30.29 in 10.0 mi Calm Calm - N/A   Clear
9:33 PM 10.4 °F - 3.2 °F 73% 30.29 in 10.0 mi Calm Calm - N/A   Clear
9:53 PM 8.6 °F - 1.4 °F 73% 30.30 in 10.0 mi Calm Calm - N/A   Clear
10:14 PM 12.2 °F - 5.0 °F 73% 30.30 in 10.0 mi Calm Calm - N/A   Clear
10:33 PM 10.4 °F - 3.2 °F 73% 30.30 in 10.0 mi Calm Calm - N/A   Clear
10:53 PM 10.4 °F - 3.2 °F 73% 30.29 in 10.0 mi Calm Calm - N/A   Clear
11:14 PM 8.6 °F - 1.4 °F 73% 30.29 in 10.0 mi Calm Calm - N/A   Clear
11:34 PM 10.4 °F - 3.2 °F 73% 30.29 in 10.0 mi Calm Calm - N/A   Clear
11:53 PM 8.6 °F - 1.4 °F 73% 30.29 in 10.0 mi Calm Calm - N/A   Clear